Location: Recife
(8.0585°S, 34.8848°W)
Time: 05:35:53
(UTC-03:00)

Courier 1B - Pass Details

Date: 21 April 2026
Orbit: 962 x 1209 km, 28.3° (Epoch: 14 May)

Event Time Altitude Azimuth Distance (km) Brightness Sun altitude
Rises 09:31:36 0° 228° (SW) 4,111 10.4 56.8°
Reaches altitude 10° 09:35:19 10° 213° (SSW) 3,150 10.0 57.5°
Maximum altitude 09:41:03 21° 166° (SSE) 2,385 9.7 58.6°
Drops below altitude 10° 09:46:40 10° 119° (ESE) 3,097 10.4 59.7°
Sets 09:50:16 0° 104° (ESE) 4,024 10.9 60.3°
